This demonstration page uses our WeatherBlox Daily Observations layout. Learn more.

Left ArrowRight Arrow

Hourly Observations for January 27, 2023

Temp ( °F °C ) Dew Point ( °F °C ) Humidity (%) Winds ( mph kmh ) Pressure ( in mb ) Visibility ( mi km ) Precip ( " mm )
12:53 am 00:53 Cloudy 34 1.1 30 -1.1 85 85 SW 10 17 29.95 1014 10 16 0.00 0.00
1:53 am 01:53 Cloudy 33 0.6 30 -1.1 88 88 WSW 7 11 29.93 1014 10 16 0.00 0.00
2:53 am 02:53 Cloudy 35 1.7 31 -0.6 85 85 WNW 5 7 29.90 1013 10 16 0.00 0.00
3:53 am 03:53 Cloudy 34 1.1 31 -0.6 88 88 SSW 5 7 29.88 1012 10 16 0.01 0.13
4:53 am 04:53 Cloudy 34 1.1 32 0 92 92 SSW 5 7 29.86 1011 10 16 0.00 0.00
5:33 am 05:33 Cloudy 34 1.1 31 -0.6 88 88 W 6 9 29.89 1012 10 16 0.00 0.00
5:53 am 05:53 Cloudy with Light Snow 33 0.6 31 -0.6 92 92 WSW 7 11 29.86 1011 8 13 0.01 0.25
6:42 am 06:42 Cloudy with Light Snow 32 0 31 -0.6 96 96 WSW 6 9 29.90 1012 3 4 0.02 0.51
6:53 am 06:53 Cloudy with Light Snow 32 0 31 -0.6 96 96 WSW 7 11 29.86 1011 3 4 0.03 0.76
7:01 am 07:01 Cloudy with Light Snow 32 0 31 -0.6 96 96 WSW 7 11 29.90 1012 6 10 0.01 0.13
7:09 am 07:09 Cloudy with Light Snow 32 0 32 0 100 100 WSW 6 9 29.90 1012 8 13 0.01 0.13
7:17 am 07:17 Cloudy with Light Snow 32 0 32 0 100 100 WSW 6 9 29.90 1012 5 8 0.01 0.13
7:24 am 07:24 Cloudy with Light Snow 32 0 32 0 100 100 WSW 6 9 29.90 1012 3 4 0.01 0.25
7:40 am 07:40 Cloudy with Light Snow 32 0 32 0 100 100 WSW 7 11 29.90 1012 2 3 0.02 0.51
7:53 am 07:53 Cloudy with Light Snow 32 0 32 0 100 100 WSW 6 9 29.87 1012 2 3 0.03 0.76
8:01 am 08:01 Cloudy with Light Snow 32 0 32 0 100 100 WSW 7 11 29.90 1012 2 3 0.01 0.25
8:13 am 08:13 Cloudy with Light Snow 32 0 32 0 100 100 WSW 7 11 29.90 1012 3 4 0.01 0.25
8:20 am 08:20 Cloudy with Light Snow 32 0 32 0 100 100 WSW 6 9 29.90 1012 4 6 0.01 0.25
8:33 am 08:33 Cloudy 32 0 32 0 100 100 WSW 6 9 29.91 1013 9 14 0.01 0.25
8:53 am 08:53 Cloudy 32 0 32 0 100 100 WSW 5 7 29.87 1012 10 16 0.01 0.25
9:03 am 09:03 Cloudy 32 0 32 0 100 100 WSW 5 7 29.91 1013 10 16 0.00 0.00
9:53 am 09:53 Cloudy 33 0.6 32 0 96 96 W 6 9 29.89 1012 10 16 0.00 0.00
10:53 am 10:53 Cloudy 34 1.1 31 -0.6 88 88 WNW 6 9 29.91 1013 10 16 0.00 0.00
11:32 am 11:32 Cloudy 34 1.1 30 -1.1 85 85 NW 6 9 29.93 1014 10 16 0.00 0.00
11:53 am 11:53 Cloudy 34 1.1 30 -1.1 85 85 NW 6 9 29.91 1013 10 16 0.00 0.00
12:09 pm 12:09 Cloudy 34 1.1 31 -0.6 88 88 NW 7 11 29.93 1014 10 16 0.00 0.00
12:53 pm 12:53 Cloudy 34 1.1 31 -0.6 88 88 NW 6 9 29.90 1013 10 16 0.00 0.00
1:15 pm 13:15 Cloudy 34 1.1 31 -0.6 88 88 NNW 3 6 29.92 1013 10 16 0.00 0.00
1:35 pm 13:35 Cloudy 34 1.1 30 -1.1 85 85 N 9 15 29.93 1014 10 16 0.00 0.00
1:44 pm 13:44 Cloudy 33 0.6 30 -1.1 88 88 NNE 10 17 29.93 1014 10 16 0.00 0.00
1:53 pm 13:53 Cloudy 33 0.6 30 -1.1 88 88 N 8 13 29.91 1013 10 16 0.00 0.00
2:53 pm 14:53 Cloudy 33 0.6 27 -2.8 78 78 N 13 20 29.94 1014 10 16 0.00 0.00
3:53 pm 15:53 Cloudy 30 -1.1 25 -3.9 81 81 NE 17 28 29.98 1015 10 16 0.00 0.00
4:53 pm 16:53 Cloudy 28 -2.2 23 -5 81 81 NE 12 19 30.03 1017 10 16 0.00 0.00
5:53 pm 17:53 Cloudy 26 -3.3 21 -6.1 81 81 NE 14 22 30.06 1018 10 16 0.00 0.00
6:53 pm 18:53 Clear 25 -3.9 18 -7.8 74 74 NE 10 17 30.09 1019 10 16 0.00 0.00
7:30 pm 19:30 Mostly Cloudy 24 -4.4 18 -7.8 77 77 NE 12 19 30.16 1021 10 16 0.00 0.00
7:53 pm 19:53 Cloudy 24 -4.4 19 -7.2 81 81 NNE 14 22 30.11 1020 10 16 0.00 0.00
8:22 pm 20:22 Cloudy 23 -5 17 -8.3 78 78 NE 16 26 30.18 1022 10 16 0.00 0.00
8:31 pm 20:31 Cloudy 21 -6.1 16 -8.9 80 80 NNE 18 30 30.20 1023 10 16 0.00 0.00
8:53 pm 20:53 Cloudy 20 -6.7 16 -8.9 84 84 NNE 20 31 30.14 1021 10 16 0.00 0.00
9:25 pm 21:25 Cloudy 18 -7.8 14 -10 84 84 NNE 15 24 30.27 1025 10 16 0.00 0.00
9:53 pm 21:53 Cloudy 17 -8.3 12 -11.1 80 80 NNE 16 26 30.19 1022 10 16 0.00 0.00
10:26 pm 22:26 Cloudy 16 -8.9 10 -12.2 77 77 NNE 17 28 30.32 1027 10 16 0.00 0.00
10:53 pm 22:53 Cloudy 14 -10 8 -13.3 77 77 NNE 17 28 30.24 1024 10 16 0.00 0.00
11:53 pm 23:53 Cloudy 11 -11.7 5 -15 76 76 NNE 17 28 30.27 1025 10 16 0.00 0.00

Powered by AerisWeather